Atqasuk Edward Burnell Sr Mem, AK

8:45 PM AKST on December 11, 2019 (GMT -0900)
Atqasuk Edward Burnell Sr Mem

Weather History for PATQ - September, 2019

Change the Weather History Date:

Saturday, September 28, 2019

  Actual Average (WUND) Record (WUND)
Temperature  
Mean Temperature 40 °F -  
Max Temperature 46 °F - - (-1)
Min Temperature 33 °F - - (-1)
Degree Days  
Heating Degree Days 26    
Moisture  
Dew Point 35 °F    
Average Humidity 85    
Maximum Humidity 96    
Minimum Humidity 68    
Precipitation  
Precipitation 0.00 in - - ()
Sea Level Pressure  
Sea Level Pressure 29.97 in    
Wind  
Wind Speed 10 mph (South)    
Max Wind Speed 12 mph    
Max Gust Speed -    
Visibility 10 miles    
Events Rain    
Averages and records for this station are not official NWS values.
T = Trace of Precipitation, MM = Missing Value Source: NWS Daily Summary

Daily Weather History Graph

Daily Weather History Graph

Search for Another Location

Airport or City:

Astronomy

Sep. 28, 2019 Rise Set
Actual Time 8:34 AM AKDT 8:04 PM AKDT
Civil Twilight 7:31 AM AKDT 9:06 PM AKDT
Nautical Twilight 6:14 AM AKDT 10:22 PM AKDT
Astronomical Twilight 4:38 AM AKDT 11:56 PM AKDT
Moon 7:48 AM AKDT (9/28) 8:48 PM AKDT (9/28)
Length of Visible Light 13h 34m
Length of Day
11h 30m
New Moon, 0% of the Moon is Illuminated
Sep 28
New Moon
Oct 5
First Quarter
Oct 13
Full
Oct 21
Last Quarter
Oct 27
New

Hourly Weather History & Observations

Time (AKDT) Temp. Windchill Dew Point Humidity Pressure Visibility Wind Dir Wind Speed Gust Speed Precip Events Conditions
1:56 AM 37.9 °F 30.5 °F 36.0 °F 93% 30.04 in 10.0 mi South 11.5 mph - 0.00 in Rain Light Rain
2:56 AM 37.9 °F 30.5 °F 36.0 °F 93% 30.04 in 10.0 mi South 11.5 mph - 0.00 in Rain Light Rain
4:56 AM 37.0 °F 30.4 °F 36.0 °F 96% 30.03 in 10.0 mi South 9.2 mph - 0.00 in   Overcast
5:56 AM 37.0 °F 29.8 °F 35.1 °F 93% 30.02 in 10.0 mi South 10.4 mph - N/A   Overcast
6:56 AM 36.0 °F 28.5 °F 33.1 °F 89% 30.02 in 10.0 mi South 10.4 mph - N/A   Scattered Clouds
7:56 AM 35.1 °F 27.4 °F 32.0 °F 89% 30.01 in 10.0 mi South 10.4 mph - N/A   Clear
8:56 AM 33.1 °F 25.5 °F 32.0 °F 96% 30.00 in 10.0 mi SSE 9.2 mph - N/A   Mostly Cloudy
9:56 AM 34.0 °F 27.2 °F 33.1 °F 96% 29.99 in 10.0 mi SSE 8.1 mph - N/A   Partly Cloudy
10:56 AM 37.9 °F 31.5 °F 34.0 °F 86% 29.99 in 10.0 mi South 9.2 mph - N/A   Partly Cloudy
11:56 AM 39.9 °F 34.5 °F 35.1 °F 83% 29.99 in 10.0 mi South 8.1 mph - N/A   Clear
12:56 PM 43.0 °F 37.7 °F 36.0 °F 76% 29.99 in 10.0 mi South 9.2 mph - N/A   Clear
1:56 PM 45.0 °F 39.3 °F 36.0 °F 71% 29.99 in 10.0 mi SSW 11.5 mph - N/A   Clear
2:56 PM 46.0 °F 41.4 °F 37.0 °F 71% 29.97 in 10.0 mi South 9.2 mph - N/A   Clear
3:56 PM 46.9 °F - 37.0 °F 68% 29.95 in 10.0 mi SSW 10.4 mph - N/A   Clear
4:56 PM 45.0 °F 41.8 °F 37.9 °F 76% 29.94 in 10.0 mi SE 5.8 mph - N/A   Overcast
5:56 PM 45.0 °F 40.6 °F 37.9 °F 76% 29.93 in 10.0 mi South 8.1 mph - N/A   Partly Cloudy
7:56 PM 43.0 °F 38.2 °F 37.9 °F 82% 29.90 in 10.0 mi SSE 8.1 mph - N/A   Overcast
8:56 PM 37.9 °F 32.1 °F 36.0 °F 93% 29.89 in 10.0 mi SSE 8.1 mph - N/A   Partly Cloudy
9:56 PM 39.0 °F 32.8 °F 35.1 °F 86% 29.88 in 10.0 mi South 9.2 mph - N/A   Mostly Cloudy
10:56 PM 36.0 °F 30.3 °F 33.1 °F 89% 29.86 in 10.0 mi SE 6.9 mph - N/A   Clear
11:56 PM 34.0 °F 27.2 °F 32.0 °F 92% 29.84 in 10.0 mi SE 8.1 mph - N/A   Clear